Location: Asheville, NC
(35.6000°N, 82.5500°W)
Time: 04:33:53
(UTC-04:00)

N. Korean satellite - Pass Details

Date: 09 February 2018
Orbit: 458 x 513 km, 97.2° (Epoch: 24 May)

Event Time Altitude Azimuth Distance (km) Brightness Sun altitude
Rises 18:50:08 0° 183° (S) 2,477 10.4 -9.5°
Reaches altitude 10° 18:52:15 10° 191° (S) 1,601 9.5 -9.9°
Maximum altitude 18:55:29 38° 261° (W) 710 8.1 -10.5°
Drops below altitude 10° 18:58:43 10° 332° (NNW) 1,602 9.4 -11.2°
Sets 19:00:51 0° 340° (NNW) 2,480 10.3 -11.6°
